Location: Kershaw
(34.5481°N, 80.5823°W)
Time: 17:00:44
(UTC+00:00)

Transit 2A - Pass Details

Date: 12 October 2022
Orbit: 598 x 959 km, 66.7° (Epoch: 06 December)

Event Time Altitude Azimuth Distance (km) Brightness Sun altitude
Rises 00:24:45 0° 161° (SSE) 2,951 - -19.7°
Reaches altitude 10° 00:28:19 10° 132° (SE) 1,989 - -20.5°
Maximum altitude 00:30:13 13° 106° (ESE) 1,804 - -20.8°
Drops below altitude 10° 00:32:04 10° 81° (E) 1,954 - -21.2°
Sets 00:35:30 0° 52° (NE) 2,843 - -21.9°
